Flag for U.S.A. Weather past 2 weeks in Aliso Viejo, California, U.S.A.

Now
74 °F

Passing clouds.


Feels Like: 76 °F
Forecast: 68 / 85 °F
Wind: 5 mph from Southwest

Location: John Wayne Airport-Orange County Airport

Current Time: Jul 31, 2014 at 9:24:28 PM

Latest Report: Jul 31, 2014 at 8:53 PM


Visibility: 10 mi

Pressure: 29.88 "Hg

Humidity: 69%

Dew point: 63 °F

Location of Aliso ViejoLocation

Historic Weather in Aliso Viejo — Graph

°F

Aliso Viejo temperature yesterday

Maximum temperature yesterday: 85 °F (at 12:53 PM)
Minimum temperature yesterday: 70 °F (at 4:53 AM)
Average temperature yesterday: 77 °F

Past Weeks' High & Low Weather Summary

 TemperatureHumidityPressure
High91 °F (Jul 28, 12:53 PM)87% (Jul 26, 6:53 AM)30.06 "Hg (Jul 26, 6:53 AM)
Low68 °F (Jul 18, 5:53 AM)22% (Jul 28, 1:53 PM)29.72 "Hg (Jul 24, 5:53 PM)
Average75 °F63%29.95 "Hg
* Reported Jul 16 7:53 PM — Jul 31 7:53 PM, Aliso Viejo, Weather by CustomWeather, © 2014

Note: Actual official high and low records may vary slightly from our data, if they occured in-between our weather recording intervals... More about our weather records

Advertising

Aliso Viejo weather history for previous 24 hours

 ConditionsComfort  
Time TempWeatherWind HumidityBarometerVisibility
7:53 PM
Jul 31
75 °FScattered clouds.5 mph66%29.85 "Hg10 mi
6:53 PM80 °FPassing clouds.6 mph54%29.84 "Hg10 mi
5:53 PM81 °FScattered clouds.9 mph47%29.84 "Hg10 mi
4:53 PM82 °FScattered clouds.8 mph48%29.84 "Hg10 mi
3:53 PM83 °FScattered clouds.8 mph46%29.85 "Hg10 mi
2:53 PM82 °FScattered clouds.7 mph49%29.88 "Hg10 mi
1:53 PM83 °FScattered clouds.6 mph51%29.89 "Hg10 mi
12:53 PM85 °FScattered clouds.7 mph45%29.90 "Hg10 mi
11:53 AM82 °FScattered clouds.3 mph51%29.91 "Hg10 mi
10:53 AM81 °FScattered clouds.6 mph53%29.93 "Hg10 mi
9:53 AM78 °FScattered clouds.5 mph54%29.93 "Hg10 mi
8:53 AM75 °FScattered clouds.5 mph64%29.93 "Hg10 mi
7:53 AM73 °FScattered clouds.3 mph74%29.93 "Hg10 mi
6:53 AM71 °FPassing clouds.No wind78%29.92 "Hg8 mi
5:53 AM70 °FPassing clouds.3 mph81%29.91 "Hg9 mi
4:53 AM71 °FClear.5 mph78%29.91 "Hg10 mi
3:53 AM71 °FClear.3 mph76%29.90 "Hg10 mi
2:53 AM71 °FClear.6 mph73%29.90 "Hg10 mi
1:53 AM72 °FClear.5 mph78%29.92 "Hg10 mi
12:53 AM72 °FClear.6 mph76%29.93 "Hg10 mi
11:53 PM
Jul 30
73 °FClear.No wind74%29.93 "Hg10 mi
10:53 PM74 °FPassing clouds.No wind71%29.92 "Hg10 mi
9:53 PM74 °FPassing clouds.5 mph74%29.92 "Hg10 mi
Weather by CustomWeather, © 2014

See weather overviewHow to use our weather pages